Santiago, Dominican Republic

4:21 PM AST on February 19, 2018 (GMT -0400)
Cibao International

Weather History for MDST - February, 2013

Change the Weather History Date:

Friday, February 8, 2013

  Actual Average Record
Temperature  
Mean Temperature 74 °F -  
Max Temperature 84 °F 86 °F 89 °F (2011)
Min Temperature 64 °F 65 °F 55 °F (2005)
Cooling Degree Days 9    
Growing Degree Days 24 (Base 50)    
Moisture  
Dew Point 68 °F    
Average Humidity 81    
Maximum Humidity 100    
Minimum Humidity 50    
Precipitation  
Precipitation 0.00 in 0.07 in - ()
Sea Level Pressure  
Sea Level Pressure 29.97 in    
Wind  
Wind Speed 6 mph ()    
Max Wind Speed 52 mph    
Max Gust Speed -    
Visibility 6.1 miles    
Events      
Averages and records for this station are not official NWS values.
T = Trace of Precipitation, MM = Missing Value Source: Averaged Metar Reports

Daily Weather History Graph

Daily Weather History Graph

Search for Another Location

Airport or City:

Trip Planner

Search our weather history database for the weather conditions in past years. The results will help you decide how hot, cold, wet, or windy it might be!

Date:

Astronomy

Feb. 08, 2013 Rise Set
Actual Time 7:14 AM AST 6:39 PM AST
Civil Twilight 6:52 AM AST 7:02 PM AST
Nautical Twilight 6:26 AM AST 7:28 PM AST
Astronomical Twilight 6:00 AM AST 7:54 PM AST
Moon 5:34 AM AST (2/8) 5:12 PM AST (2/8)
Length of Visible Light 12h 09m
Length of Day
11h 24m
Waning Crescent, 4% of the Moon is Illuminated
Feb 8
Waning Crescent
Feb 10
New
Feb 17
First Quarter
Feb 25
Full
Mar 4
Last Quarter

Hourly Weather History & Observations

Time (AST) Temp. Heat Index Dew Point Humidity Pressure Visibility Wind Dir Wind Speed Gust Speed Precip Events Conditions
12:00 AM 69.8 °F - 68.0 °F 94% 29.98 in 6.2 mi East 4.6 mph - N/A   Mostly Cloudy
1:00 AM 69.8 °F - 68.0 °F 94% 29.98 in 6.2 mi Variable 3.5 mph - N/A   Partly Cloudy
2:00 AM 68 °F - 66 °F 90% 29.98 in 6 mi East 4.5 mph - -   Haze
2:00 AM 68.0 °F - 66.2 °F 94% 29.98 in 6.2 mi Variable 3.5 mph - N/A   Scattered Clouds
4:00 AM 68.0 °F - 66.2 °F 94% 29.95 in 6.2 mi Variable 2.3 mph - N/A   Scattered Clouds
5:00 AM 68.0 °F - 66.2 °F 94% 29.95 in 6.2 mi Calm Calm - N/A   Mostly Cloudy
6:00 AM 68.0 °F - 66.2 °F 94% 29.95 in 6.2 mi Calm Calm - N/A   Scattered Clouds
7:00 AM 66.2 °F - 66.2 °F 100% 29.98 in 3.1 mi Calm Calm - N/A   Partly Cloudy
8:00 AM 65 °F - 64 °F 96% 30.00 in 6 mi Calm Calm - -   Haze
8:00 AM 66.2 °F - 64.4 °F 94% 29.98 in 6.2 mi Calm Calm - N/A   Partly Cloudy
9:00 AM 71.6 °F - 69.8 °F 94% 30.01 in 6.2 mi Calm Calm - N/A   Partly Cloudy
10:00 AM 77.0 °F - 71.6 °F 83% 30.01 in 6.2 mi SSE 5.8 mph - N/A   Partly Cloudy
11:00 AM 78.8 °F - 69.8 °F 74% 30.01 in 6.2 mi SE 9.2 mph - N/A   Scattered Clouds
12:00 PM 80.6 °F 83.9 °F 69.8 °F 70% 30.01 in 6.2 mi SE 9.2 mph - N/A   Scattered Clouds
1:00 PM 80.6 °F 83.9 °F 69.8 °F 70% 29.98 in 6.2 mi ESE 11.5 mph - N/A   Scattered Clouds
2:00 PM 82.4 °F 86.3 °F 69.8 °F 66% 29.95 in 6.2 mi ESE 13.8 mph - N/A   Scattered Clouds
3:00 PM 84.2 °F 87.3 °F 68.0 °F 58% 29.92 in 6.2 mi ESE 12.7 mph - N/A   Partly Cloudy
4:00 PM 84.2 °F 87.3 °F 68.0 °F 58% 29.89 in 6.2 mi East 13.8 mph - N/A   Unknown
5:00 PM 84 °F - 68 °F 50% 29.91 in 7 mi East 13.4 mph - -   Haze
5:00 PM 84.2 °F 87.3 °F 68.0 °F 58% 29.89 in 6.2 mi East 13.8 mph - N/A   Scattered Clouds
6:00 PM 82.4 °F 85.4 °F 68.0 °F 62% 29.92 in 6.2 mi SE 9.2 mph - N/A   Scattered Clouds
7:00 PM 78.8 °F - 68.0 °F 69% 30.01 in 6.2 mi ESE 10.4 mph - N/A   Partly Cloudy
8:00 PM 75.2 °F - 69.8 °F 83% 29.95 in 6.2 mi ESE 8.1 mph - N/A   Scattered Clouds
9:00 PM 75.2 °F - 69.8 °F 83% 29.98 in 6.2 mi SSE 5.8 mph - N/A   Scattered Clouds
10:00 PM 73.4 °F - 71.6 °F 94% 29.98 in 6.2 mi SSE 51.8 mph - N/A   Mostly Cloudy
11:00 PM 73.4 °F - 71.6 °F 94% 30.01 in 6.2 mi ESE 5.8 mph - N/A   Partly Cloudy